Regional Weather Roundup
Issued by NWS

Home | Current Version | Previous Version | Graphics & Text | Print | Product List | Glossary On
Versions: 1 2 3 4 5 6 7 8 9 10 11 12 13 14 15 16 17 18 19 20 21 22 23 24 25 26 27 28 29 30 31 32 33 34 35 36 37 38 39 40 41 42 43 44 45 46 47 48 49 50
000
ASUS44 KMEG 010100
RWRTN
TENNESSEE HOURLY STATE WEATHER ROUNDUP
NATIONAL WEATHER SERVICE MEMPHIS TN
800 PM CDT SAT APR 30 2016

TNZ002-004-019-021-049-052-054-088>092-010200-
WEST TENNESSEE

CITY           SKY/WX    TMP DP  RH WIND       PRES   REMARKS
MEMPHIS INTL   PTCLDY    72  63  73 CALM      29.82R
NWS MEMPHIS      N/A     70 N/A N/A MISG        N/A
JACKSON        CLEAR     69  64  84 SE5       29.84S
DYERSBURG      CLEAR     70  61  73 SE5         N/A
UNION CITY     CLEAR     66  63  88 S5        29.84R
LEXINGTON      CLOUDY    68  66  94 NE3       29.86R
$$

TNZ008-025-027-028-033-062-065-066-010200-
NORTH MIDDLE TENNESSEE

CITY           SKY/WX    TMP DP  RH WIND       PRES   REMARKS
NASHVILLE      LGT RAIN  69  66  90 S5        29.88R
CLARKSVILLE    CLOUDY    68  64  87 CALM      29.88R
COOKEVILLE     MOCLDY    68  66  94 SE6       29.92R
CROSSVILLE     CLOUDY    65  60  84 SE7       29.97F
$$

TNZ061-075-076-078-094-096-097-010200-
SOUTH MIDDLE TENNESSEE

CITY           SKY/WX    TMP DP  RH WIND       PRES   REMARKS
TULLAHOMA      CLEAR     66  66 100 CALM      29.91R
WINCHESTER     CLEAR     70  64  83 VRB3      29.90S
MCMINNVILLE    CLEAR     66  66 100 SE3       29.91S
COLUMBIA       CLEAR    N/A N/A N/A CALM      29.86R
SHELBYVILLE    CLEAR     70  68  94 CALM      29.90R
$$

TNZ017-018-042-046-047-010200-
NORTHEAST TENNESSEE

CITY           SKY/WX    TMP DP  RH WIND       PRES   REMARKS
TRI CITIES     CLOUDY    62  60  93 CALM      30.03S
$$

TNZ012-013-036-069-073-074-010200-
CENTRAL EAST TENNESSEE

CITY           SKY/WX    TMP DP  RH WIND       PRES   REMARKS
KNOXVILLE      CLOUDY    65  62  90 W7        29.99R
OAK RIDGE      HVY RAIN  64  62  93 CALM      30.00R FOG
GATLINBURG     MOCLDY    63  61  94 SE3       29.99S
$$

TNZ083-085-099-010200-
SOUTHEAST TENNESSEE

CITY           SKY/WX    TMP DP  RH WIND       PRES   REMARKS
CHATTANOOGA    CLOUDY    69  65  86 NE10      29.92R
$$

SKY/WX REPORTED AS FAIR MEANS FEW OR NO CLOUDS BELOW
12 THOUSAND FEET.





USA.gov is the U.S. government's official web portal to all federal, state and local government web resources and services.